Eastsound, WA
on Saturday, December 29, 2012

Saturday
Previous Day Next Day
Daily Summary
 ActualAverage (KBLI)Record (KBLI)
Temperature
Mean Temperature °F 38°F  
Max Temperature 41°F 44°F 59°F (1952)
Min Temperature 37°F 32°F 0°F (1968)
Degree Days
Heating Degree Days 26 27  
Month to date heating degree days 773  
Cooling Degree Days 0 0  
Month to date cooling degree days 0  
Year to date cooling degree days 42  
Moisture
Dew Point 39°F   
Average Humidity 97    
Maximum Humidity 100    
Minimum Humidity 87    
Precipitation
Precipitation 0.00 in 0.11 in 1.14 in (1995)
Month to date precipitation 3.98  
Year to date precipitation 35.59  
Wind
Wind Speed 1 mph   
Max Wind Speed 9 mph   
Max Gust Speed mph   
Visibility 7 miles   
Events Rain   

Key: T is trace of precipitation, MM is missing value
Source: NWS Daily Summary
Time(PST)TemperatureDew PointHumidity Pressure Visibility Wind DirectionWind SpeedGust SpeedPrecipitationEvents Conditions
12:15 AM 39.2°F 39.2°F 100% 30.15 in 10.0 miles Calm Calm - N/A   Overcast
12:35 AM 39.2°F 39.2°F 100% 30.15 in 10.0 miles Calm Calm - N/A Rain Light Rain
12:55 AM 39.2°F 39.2°F 100% 30.15 in 7.0 miles Calm Calm - N/A Rain Light Rain
1:15 AM 39.2°F 39.2°F 100% 30.16 in 6.0 miles Calm Calm - N/A Rain Light Rain
1:35 AM 39.2°F 39.2°F 100% 30.15 in 8.0 miles Calm Calm - N/A   Clear
1:55 AM 39.2°F 39.2°F 100% 30.15 in 10.0 miles Calm Calm - N/A Rain Light Rain
2:15 AM 39.2°F 39.2°F 100% 30.15 in 9.0 miles Calm Calm - N/A   Scattered Clouds
2:35 AM 39.2°F 39.2°F 100% 30.16 in 9.0 miles Calm Calm - N/A Rain Light Rain
2:55 AM 39.2°F 39.2°F 100% 30.16 in 7.0 miles Calm Calm - N/A Rain Light Rain
3:15 AM 39.2°F 39.2°F 100% 30.16 in 7.0 miles Calm Calm - N/A Rain Light Rain
3:35 AM 39.2°F 39.2°F 100% 30.16 in 5.0 miles Calm Calm - N/A Rain Light Rain
4:15 AM 39.2°F 39.2°F 100% 30.15 in 5.0 miles Calm Calm - N/A Rain Light Rain
4:35 AM 39.2°F 39.2°F 100% 30.15 in 7.0 miles Calm Calm - N/A   Mostly Cloudy
4:55 AM 39.2°F 39.2°F 100% 30.15 in 8.0 miles Calm Calm - N/A   Overcast
5:15 AM 39.2°F 39.2°F 100% 30.16 in 4.0 miles Calm Calm - N/A Rain Light Rain
5:35 AM 39.2°F 39.2°F 100% 30.16 in 4.0 miles Calm Calm - N/A Rain Light Rain
5:55 AM 39.2°F 39.2°F 100% 30.16 in 9.0 miles Calm Calm - N/A Rain Light Rain
6:35 AM 39.2°F 39.2°F 100% 30.15 in 10.0 miles Calm Calm - N/A   Mostly Cloudy
6:55 AM 39.2°F 39.2°F 100% 30.15 in 7.0 miles South 4.6 mph - N/A Rain Light Rain
7:15 AM 39.2°F 37.4°F 93% 30.14 in 5.0 miles South 5.8 mph - N/A Rain Light Rain
7:35 AM 39.2°F 37.4°F 93% 30.14 in 9.0 miles South 4.6 mph - N/A   Mostly Cloudy
8:15 AM 39.2°F 37.4°F 93% 30.15 in 5.0 miles South 6.9 mph - N/A Rain Light Rain
8:35 AM 39.2°F 37.4°F 93% 30.16 in 10.0 miles SSW 9.2 mph - N/A   Overcast
9:15 AM 39.2°F 37.4°F 93% 30.17 in 8.0 miles South 4.6 mph - N/A   Overcast
9:55 AM 39.2°F 37.4°F 93% 30.17 in 4.0 miles South 6.9 mph - N/A Rain Light Rain
10:15 AM 39.2°F 37.4°F 93% 30.17 in 6.0 miles South 6.9 mph - N/A   Overcast
10:35 AM 39.2°F 39.2°F 100% 30.16 in 9.0 miles South 8.1 mph - N/A   Overcast
10:55 AM 39.2°F 39.2°F 100% 30.16 in 4.0 miles SSW 9.2 mph - N/A   Overcast
11:15 AM 39.2°F 39.2°F 100% 30.16 in 9.0 miles SSW 6.9 mph - N/A   Overcast
11:35 AM 39.2°F 39.2°F 100% 30.16 in 1.2 miles South 4.6 mph - N/A   Overcast
12:15 PM 39.2°F 39.2°F 100% 30.16 in 1.0 miles South 3.5 mph - N/A Rain Light Rain
12:35 PM 39.2°F 39.2°F 100% 30.15 in 1.2 miles South 3.5 mph - N/A   Overcast
12:55 PM 39.2°F 39.2°F 100% 30.14 in 2.5 miles Calm Calm - N/A   Overcast
1:15 PM 39.2°F 39.2°F 100% 30.14 in 1.5 miles South 3.5 mph - N/A   Overcast
1:35 PM 39.2°F 39.2°F 100% 30.14 in 1.2 miles Calm Calm - N/A   Overcast
1:55 PM 39.2°F 39.2°F 100% 30.14 in 5.0 miles Calm Calm - N/A   Overcast
2:15 PM 39.2°F 39.2°F 100% 30.14 in 3.0 miles Calm Calm - N/A   Overcast
2:35 PM 39.2°F 39.2°F 100% 30.15 in 1.5 miles Calm Calm - N/A   Overcast
2:55 PM 39.2°F 39.2°F 100% 30.15 in 3.0 miles North - - N/A   Overcast
3:15 PM 39.2°F 39.2°F 100% 30.15 in 8.0 miles Calm Calm - N/A   Overcast
3:35 PM 39.2°F 39.2°F 100% 30.15 in 7.0 miles Calm Calm - N/A   Overcast
3:55 PM 39.2°F 39.2°F 100% 30.16 in 1.8 miles Calm Calm - N/A   Overcast
4:15 PM 39.2°F 39.2°F 100% 30.15 in 1.5 miles Calm Calm - N/A   Overcast
4:35 PM 39.2°F 39.2°F 100% 30.15 in 10.0 miles Calm Calm - N/A   Overcast
4:55 PM 39.2°F 39.2°F 100% 30.16 in 10.0 miles Calm Calm - N/A   Mostly Cloudy
5:15 PM 39.2°F 39.2°F 100% 30.16 in 10.0 miles Calm Calm - N/A   Mostly Cloudy
5:35 PM 39.2°F 39.2°F 100% 30.16 in 10.0 miles Calm Calm - N/A   Overcast
5:55 PM 39.2°F 37.4°F 93% 30.17 in 10.0 miles NE 4.6 mph - N/A   Overcast
6:15 PM 41.0°F 37.4°F 87% 30.17 in 10.0 miles NNE 4.6 mph - N/A   Overcast
6:35 PM 39.2°F 37.4°F 93% 30.17 in 10.0 miles Calm Calm - N/A   Overcast
6:55 PM 39.2°F 37.4°F 93% 30.18 in 10.0 miles Calm Calm - N/A   Overcast
7:15 PM 41.0°F 37.4°F 87% 30.18 in 10.0 miles Calm Calm - N/A   Overcast
7:35 PM 41.0°F 37.4°F 87% 30.18 in 10.0 miles Calm Calm - N/A   Overcast
7:55 PM 41.0°F 37.4°F 87% 30.19 in 10.0 miles Calm Calm - N/A   Overcast
8:15 PM 39.2°F 37.4°F 93% 30.18 in 10.0 miles Calm Calm - N/A   Overcast
8:35 PM 39.2°F 37.4°F 93% 30.19 in 9.0 miles North - - N/A   Overcast
8:55 PM 41.0°F 37.4°F 87% 30.20 in 10.0 miles Calm Calm - N/A   Overcast
9:15 PM 41.0°F 37.4°F 87% 30.20 in 10.0 miles NNE 4.6 mph - N/A   Overcast
10:15 PM 39.2°F 35.6°F 87% 30.21 in 10.0 miles Calm Calm - N/A   Mostly Cloudy
10:35 PM 39.2°F 37.4°F 93% 30.22 in 10.0 miles East 3.5 mph - N/A   Partly Cloudy
10:55 PM 39.2°F 37.4°F 93% 30.22 in 10.0 miles East 4.6 mph - N/A   Partly Cloudy
11:15 PM 37.4°F 37.4°F 100% 30.22 in 10.0 miles Calm Calm - N/A   Mostly Cloudy
11:35 PM 37.4°F 37.4°F 100% 30.23 in 10.0 miles Calm Calm - N/A   Overcast
Moon Phase
Dec. 29 Jan. 04 Jan. 11 Jan. 18 Jan. 26
Sunrise:08:04 AM (PST) Moon Rise:06:11 PM (PST)12/29
Sunset:04:23 PM (PST) Moon Set:08:33 AM (PST)12/29

Copyright © 2014 The Weather Underground, Inc.